owner,sensor,date,latitude,longitude,vertical_datum,mass_concentration_of_oxygen_in_sea_water,qcFlag 
SCCF RECON,ioos:station:SCCF:16:1,2008-05-01T16:00:00Z,26.4345,-81.9647,2.763,6.94,1111122 
SCCF RECON,ioos:station:SCCF:16:1,2008-05-01T17:00:00Z,26.4345,-81.9647,2.623,6.98,1111122 
SCCF RECON,ioos:station:SCCF:16:1,2008-05-01T18:00:00Z,26.4345,-81.9647,2.481,7.04,1111122 
SCCF RECON,ioos:station:SCCF:16:1,2008-05-01T19:00:00Z,26.4345,-81.9647,2.387,7.0,1111122 
SCCF RECON,ioos:station:SCCF:16:1,2008-05-01T20:00:00Z,26.4345,-81.9647,2.329,7.01,1111122 
SCCF RECON,ioos:station:SCCF:16:1,2008-05-01T21:00:00Z,26.4345,-81.9647,2.343,7.11,1111122 
SCCF RECON,ioos:station:SCCF:16:1,2008-05-01T22:00:00Z,26.4345,-81.9647,2.427,7.13,1111122 
SCCF RECON,ioos:station:SCCF:16:1,2008-05-01T23:00:00Z,26.4345,-81.9647,2.565,7.16,1111122 
SCCF RECON,ioos:station:SCCF:16:1,2008-05-02T00:00:00Z,26.4345,-81.9647,2.672,7.11,1111122 
SCCF RECON,ioos:station:SCCF:16:1,2008-05-02T01:00:00Z,26.4345,-81.9647,2.766,7.05,1111122 
SCCF RECON,ioos:station:SCCF:16:1,2008-05-02T02:00:00Z,26.4345,-81.9647,2.826,6.98,1111122 
SCCF RECON,ioos:station:SCCF:16:1,2008-05-02T03:00:00Z,26.4345,-81.9647,2.816,7.11,1111122 
SCCF RECON,ioos:station:SCCF:16:1,2008-05-02T04:00:00Z,26.4345,-81.9647,2.717,6.97,1111122 
SCCF RECON,ioos:station:SCCF:16:1,2008-05-02T05:00:00Z,26.4345,-81.9647,2.59,6.9,1111122 
SCCF RECON,ioos:station:SCCF:16:1,2008-05-02T06:00:00Z,26.4345,-81.9647,2.416,6.73,1111122 
SCCF RECON,ioos:station:SCCF:16:1,2008-05-02T07:00:00Z,26.4345,-81.9647,2.295,6.66,1111122 
SCCF RECON,ioos:station:SCCF:16:1,2008-05-02T08:00:00Z,26.4345,-81.9647,2.254,6.5,1111122 
SCCF RECON,ioos:station:SCCF:16:1,2008-05-02T09:00:00Z,26.4345,-81.9647,2.271,6.41,1111122 
SCCF RECON,ioos:station:SCCF:16:1,2008-05-02T10:00:00Z,26.4345,-81.9647,2.429,6.39,1111122 
SCCF RECON,ioos:station:SCCF:16:1,2008-05-02T11:00:00Z,26.4345,-81.9647,2.632,6.35,1111122 
SCCF RECON,ioos:station:SCCF:16:1,2008-05-02T12:00:00Z,26.4345,-81.9647,2.764,6.47,1111122 
SCCF RECON,ioos:station:SCCF:16:1,2008-05-02T13:00:00Z,26.4345,-81.9647,2.886,6.58,1111122 
SCCF RECON,ioos:station:SCCF:16:1,2008-05-02T14:00:00Z,26.4345,-81.9647,3.005,6.79,1111122 
SCCF RECON,ioos:station:SCCF:16:1,2008-05-02T15:00:00Z,26.4345,-81.9647,3.034,6.77,1111122 
SCCF RECON,ioos:station:SCCF:16:1,2008-05-02T16:00:00Z,26.4345,-81.9647,2.949,6.85,1111122 
SCCF RECON,ioos:station:SCCF:16:1,2008-05-02T17:00:00Z,26.4345,-81.9647,2.793,6.86,1111122 
SCCF RECON,ioos:station:SCCF:16:1,2008-05-02T18:00:00Z,26.4345,-81.9647,2.608,6.85,1111122 
SCCF RECON,ioos:station:SCCF:16:1,2008-05-02T19:00:00Z,26.4345,-81.9647,2.451,6.72,1111122 
SCCF RECON,ioos:station:SCCF:16:1,2008-05-02T20:00:00Z,26.4345,-81.9647,2.309,6.86,1111122 
SCCF RECON,ioos:station:SCCF:16:1,2008-05-02T21:00:00Z,26.4345,-81.9647,2.2,7.0,1111122 
SCCF RECON,ioos:station:SCCF:16:1,2008-05-02T22:00:00Z,26.4345,-81.9647,2.277,6.93,1111122 
SCCF RECON,ioos:station:SCCF:16:1,2008-05-02T23:00:00Z,26.4345,-81.9647,2.445,6.86,1111122 
SCCF RECON,ioos:station:SCCF:16:1,2008-05-03T00:00:00Z,26.4345,-81.9647,2.645,7.04,1111122 
SCCF RECON,ioos:station:SCCF:16:1,2008-05-03T01:00:00Z,26.4345,-81.9647,2.77,7.01,1111122 
SCCF RECON,ioos:station:SCCF:16:1,2008-05-03T02:00:00Z,26.4345,-81.9647,2.882,6.97,1111122 
SCCF RECON,ioos:station:SCCF:16:1,2008-05-03T03:00:00Z,26.4345,-81.9647,2.938,7.15,1111122 
SCCF RECON,ioos:station:SCCF:16:1,2008-05-03T04:00:00Z,26.4345,-81.9647,2.906,7.13,1111122 
SCCF RECON,ioos:station:SCCF:16:1,2008-05-03T05:00:00Z,26.4345,-81.9647,2.757,7.08,1111122 
SCCF RECON,ioos:station:SCCF:16:1,2008-05-03T06:00:00Z,26.4345,-81.9647,2.591,6.75,1111122 
SCCF RECON,ioos:station:SCCF:16:1,2008-05-03T07:00:00Z,26.4345,-81.9647,2.443,6.56,1111122 
SCCF RECON,ioos:station:SCCF:16:1,2008-05-03T08:00:00Z,26.4345,-81.9647,2.372,6.44,1111122 
SCCF RECON,ioos:station:SCCF:16:1,2008-05-03T09:00:00Z,26.4345,-81.9647,2.341,6.36,1111122 
SCCF RECON,ioos:station:SCCF:16:1,2008-05-03T10:00:00Z,26.4345,-81.9647,2.39,6.27,1111122 
SCCF RECON,ioos:station:SCCF:16:1,2008-05-03T11:00:00Z,26.4345,-81.9647,2.533,6.24,1111122 
SCCF RECON,ioos:station:SCCF:16:1,2008-05-03T12:00:00Z,26.4345,-81.9647,2.737,6.3,1111122 
SCCF RECON,ioos:station:SCCF:16:1,2008-05-03T13:00:00Z,26.4345,-81.9647,2.898,6.48,1111122 
SCCF RECON,ioos:station:SCCF:16:1,2008-05-03T14:00:00Z,26.4345,-81.9647,2.981,6.54,1111122 
SCCF RECON,ioos:station:SCCF:16:1,2008-05-03T15:00:00Z,26.4345,-81.9647,3.031,6.66,1111122 
SCCF RECON,ioos:station:SCCF:16:1,2008-05-03T16:00:00Z,26.4345,-81.9647,3.012,6.74,1111122 
SCCF RECON,ioos:station:SCCF:16:1,2008-05-03T17:00:00Z,26.4345,-81.9647,2.9,6.76,1111122 
SCCF RECON,ioos:station:SCCF:16:1,2008-05-03T18:00:00Z,26.4345,-81.9647,2.668,6.83,1111122 
SCCF RECON,ioos:station:SCCF:16:1,2008-05-03T19:00:00Z,26.4345,-81.9647,2.483,6.86,1111122 
SCCF RECON,ioos:station:SCCF:16:1,2008-05-03T20:00:00Z,26.4345,-81.9647,2.319,6.8,1111122 
SCCF RECON,ioos:station:SCCF:16:1,2008-05-03T21:00:00Z,26.4345,-81.9647,2.145,6.86,1111122 
SCCF RECON,ioos:station:SCCF:16:1,2008-05-03T22:00:00Z,26.4345,-81.9647,2.036,6.92,1111122 
SCCF RECON,ioos:station:SCCF:16:1,2008-05-03T23:00:00Z,26.4345,-81.9647,2.123,6.93,1111122 
SCCF RECON,ioos:station:SCCF:16:1,2008-05-04T00:00:00Z,26.4345,-81.9647,2.353,6.96,1111122 
SCCF RECON,ioos:station:SCCF:16:1,2008-05-04T01:00:00Z,26.4345,-81.9647,2.624,7.02,1111122 
SCCF RECON,ioos:station:SCCF:16:1,2008-05-04T02:00:00Z,26.4345,-81.9647,2.809,7.13,1111122 
SCCF RECON,ioos:station:SCCF:16:1,2008-05-04T03:00:00Z,26.4345,-81.9647,2.879,7.19,1111122 
SCCF RECON,ioos:station:SCCF:16:1,2008-05-04T04:00:00Z,26.4345,-81.9647,2.911,7.17,1111122 
SCCF RECON,ioos:station:SCCF:16:1,2008-05-04T05:00:00Z,26.4345,-81.9647,2.871,6.97,1111122 
SCCF RECON,ioos:station:SCCF:16:1,2008-05-04T06:00:00Z,26.4345,-81.9647,2.811,6.71,1111122 
SCCF RECON,ioos:station:SCCF:16:1,2008-05-04T07:00:00Z,26.4345,-81.9647,2.628,6.63,1111122 
SCCF RECON,ioos:station:SCCF:16:1,2008-05-04T08:00:00Z,26.4345,-81.9647,2.498,6.57,1111122 
SCCF RECON,ioos:station:SCCF:16:1,2008-05-04T09:00:00Z,26.4345,-81.9647,2.42,6.43,1111122 
SCCF RECON,ioos:station:SCCF:16:1,2008-05-04T10:00:00Z,26.4345,-81.9647,2.433,6.38,1111122 
SCCF RECON,ioos:station:SCCF:16:1,2008-05-04T11:00:00Z,26.4345,-81.9647,2.513,6.37,1111122 
SCCF RECON,ioos:station:SCCF:16:1,2008-05-04T12:00:00Z,26.4345,-81.9647,2.605,6.39,1111122 
SCCF RECON,ioos:station:SCCF:16:1,2008-05-04T13:00:00Z,26.4345,-81.9647,2.812,6.49,1111122 
SCCF RECON,ioos:station:SCCF:16:1,2008-05-04T14:00:00Z,26.4345,-81.9647,2.969,6.65,1111122 
SCCF RECON,ioos:station:SCCF:16:1,2008-05-04T15:00:00Z,26.4345,-81.9647,3.021,6.63,1111122 
SCCF RECON,ioos:station:SCCF:16:1,2008-05-04T16:00:00Z,26.4345,-81.9647,3.065,6.61,1111122 
SCCF RECON,ioos:station:SCCF:16:1,2008-05-04T17:00:00Z,26.4345,-81.9647,2.963,6.6,1111122 
SCCF RECON,ioos:station:SCCF:16:1,2008-05-04T18:00:00Z,26.4345,-81.9647,2.762,6.79,1111122 
SCCF RECON,ioos:station:SCCF:16:1,2008-05-04T19:00:00Z,26.4345,-81.9647,2.477,6.82,1111122 
SCCF RECON,ioos:station:SCCF:16:1,2008-05-04T20:00:00Z,26.4345,-81.9647,2.249,6.9,1111122 
SCCF RECON,ioos:station:SCCF:16:1,2008-05-04T21:00:00Z,26.4345,-81.9647,1.986,7.1,1111122 
SCCF RECON,ioos:station:SCCF:16:1,2008-05-04T22:00:00Z,26.4345,-81.9647,1.796,7.01,1111122 
SCCF RECON,ioos:station:SCCF:16:1,2008-05-04T23:00:00Z,26.4345,-81.9647,1.769,7.49,1111122 
SCCF RECON,ioos:station:SCCF:16:1,2008-05-05T00:00:00Z,26.4345,-81.9647,1.968,7.04,1111122 
SCCF RECON,ioos:station:SCCF:16:1,2008-05-05T01:00:00Z,26.4345,-81.9647,2.23,7.22,1111122 
SCCF RECON,ioos:station:SCCF:16:1,2008-05-05T02:00:00Z,26.4345,-81.9647,2.475,6.93,1111122 
SCCF RECON,ioos:station:SCCF:16:1,2008-05-05T03:00:00Z,26.4345,-81.9647,2.641,6.6,1111122 
SCCF RECON,ioos:station:SCCF:16:1,2008-05-05T04:00:00Z,26.4345,-81.9647,2.766,6.59,1111122 
SCCF RECON,ioos:station:SCCF:16:1,2008-05-05T05:00:00Z,26.4345,-81.9647,2.828,6.62,1111122 
SCCF RECON,ioos:station:SCCF:16:1,2008-05-05T06:00:00Z,26.4345,-81.9647,2.747,6.58,1111122 
SCCF RECON,ioos:station:SCCF:16:1,2008-05-05T07:00:00Z,26.4345,-81.9647,2.647,6.52,1111122 
SCCF RECON,ioos:station:SCCF:16:1,2008-05-05T08:00:00Z,26.4345,-81.9647,2.55,6.41,1111122 
SCCF RECON,ioos:station:SCCF:16:1,2008-05-05T09:00:00Z,26.4345,-81.9647,2.455,6.38,1111122 
SCCF RECON,ioos:station:SCCF:16:1,2008-05-05T10:00:00Z,26.4345,-81.9647,2.4,6.28,1111122 
SCCF RECON,ioos:station:SCCF:16:1,2008-05-05T11:00:00Z,26.4345,-81.9647,2.39,6.09,1111122 
SCCF RECON,ioos:station:SCCF:16:1,2008-05-05T12:00:00Z,26.4345,-81.9647,2.493,6.07,1111122 
SCCF RECON,ioos:station:SCCF:16:1,2008-05-05T13:00:00Z,26.4345,-81.9647,2.689,6.08,1111122 
SCCF RECON,ioos:station:SCCF:16:1,2008-05-05T14:00:00Z,26.4345,-81.9647,2.884,6.25,1111122 
SCCF RECON,ioos:station:SCCF:16:1,2008-05-05T15:00:00Z,26.4345,-81.9647,2.963,6.47,1111122 
SCCF RECON,ioos:station:SCCF:16:1,2008-05-05T16:00:00Z,26.4345,-81.9647,2.991,6.58,1111122 
SCCF RECON,ioos:station:SCCF:16:1,2008-05-05T17:00:00Z,26.4345,-81.9647,2.968,6.62,1111122 
SCCF RECON,ioos:station:SCCF:16:1,2008-05-05T18:00:00Z,26.4345,-81.9647,2.86,6.63,1111122 
SCCF RECON,ioos:station:SCCF:16:1,2008-05-05T19:00:00Z,26.4345,-81.9647,2.655,6.79,1111122 
SCCF RECON,ioos:station:SCCF:16:1,2008-05-05T20:00:00Z,26.4345,-81.9647,2.391,6.79,1111122 
SCCF RECON,ioos:station:SCCF:16:1,2008-05-05T21:00:00Z,26.4345,-81.9647,2.118,6.77,1111122 
SCCF RECON,ioos:station:SCCF:16:1,2008-05-05T22:00:00Z,26.4345,-81.9647,1.853,6.74,1111122 
SCCF RECON,ioos:station:SCCF:16:1,2008-05-05T23:00:00Z,26.4345,-81.9647,1.68,6.79,1111122 
SCCF RECON,ioos:station:SCCF:16:1,2008-05-06T00:00:00Z,26.4345,-81.9647,1.652,7.05,1111122 
SCCF RECON,ioos:station:SCCF:16:1,2008-05-06T01:00:00Z,26.4345,-81.9647,1.882,6.67,1111122 
SCCF RECON,ioos:station:SCCF:16:1,2008-05-06T02:00:00Z,26.4345,-81.9647,2.21,6.55,1111122 
SCCF RECON,ioos:station:SCCF:16:1,2008-05-06T03:00:00Z,26.4345,-81.9647,2.471,6.7,1111122 
SCCF RECON,ioos:station:SCCF:16:1,2008-05-06T04:00:00Z,26.4345,-81.9647,2.613,6.59,1111122 
SCCF RECON,ioos:station:SCCF:16:1,2008-05-06T05:00:00Z,26.4345,-81.9647,2.718,6.53,1111122 
SCCF RECON,ioos:station:SCCF:16:1,2008-05-06T06:00:00Z,26.4345,-81.9647,2.774,6.51,1111122 
SCCF RECON,ioos:station:SCCF:16:1,2008-05-06T07:00:00Z,26.4345,-81.9647,2.731,6.55,1111122 
SCCF RECON,ioos:station:SCCF:16:1,2008-05-06T08:00:00Z,26.4345,-81.9647,2.624,6.49,1111122 
SCCF RECON,ioos:station:SCCF:16:1,2008-05-06T09:00:00Z,26.4345,-81.9647,2.509,6.45,1111122 
SCCF RECON,ioos:station:SCCF:16:1,2008-05-06T10:00:00Z,26.4345,-81.9647,2.472,6.31,1111122 
SCCF RECON,ioos:station:SCCF:16:1,2008-05-06T11:00:00Z,26.4345,-81.9647,2.431,6.17,1111122 
SCCF RECON,ioos:station:SCCF:16:1,2008-05-06T12:00:00Z,26.4345,-81.9647,2.449,6.11,1111122 
SCCF RECON,ioos:station:SCCF:16:1,2008-05-06T13:00:00Z,26.4345,-81.9647,2.591,6.09,1111122 
SCCF RECON,ioos:station:SCCF:16:1,2008-05-06T14:00:00Z,26.4345,-81.9647,2.792,6.17,1111122 
SCCF RECON,ioos:station:SCCF:16:1,2008-05-06T15:00:00Z,26.4345,-81.9647,2.926,6.45,1111122 
SCCF RECON,ioos:station:SCCF:16:1,2008-05-06T16:00:00Z,26.4345,-81.9647,3.002,6.56,1111122 
SCCF RECON,ioos:station:SCCF:16:1,2008-05-06T17:00:00Z,26.4345,-81.9647,3.011,6.59,1111122 
SCCF RECON,ioos:station:SCCF:16:1,2008-05-06T18:00:00Z,26.4345,-81.9647,2.967,6.57,1111122 
SCCF RECON,ioos:station:SCCF:16:1,2008-05-06T19:00:00Z,26.4345,-81.9647,2.837,6.55,1111122 
SCCF RECON,ioos:station:SCCF:16:1,2008-05-06T20:00:00Z,26.4345,-81.9647,2.594,6.66,1111122 
SCCF RECON,ioos:station:SCCF:16:1,2008-05-06T21:00:00Z,26.4345,-81.9647,2.3,6.77,1111122 
SCCF RECON,ioos:station:SCCF:16:1,2008-05-06T22:00:00Z,26.4345,-81.9647,2.052,6.72,1111122 
SCCF RECON,ioos:station:SCCF:16:1,2008-05-06T23:00:00Z,26.4345,-81.9647,1.811,6.63,1111122 
SCCF RECON,ioos:station:SCCF:16:1,2008-05-07T00:00:00Z,26.4345,-81.9647,1.659,6.84,1111122 
SCCF RECON,ioos:station:SCCF:16:1,2008-05-07T01:00:00Z,26.4345,-81.9647,1.684,6.68,1111122 
SCCF RECON,ioos:station:SCCF:16:1,2008-05-07T02:00:00Z,26.4345,-81.9647,1.904,6.57,1111122 
SCCF RECON,ioos:station:SCCF:16:1,2008-05-07T03:00:00Z,26.4345,-81.9647,2.192,6.6,1111122 
SCCF RECON,ioos:station:SCCF:16:1,2008-05-07T04:00:00Z,26.4345,-81.9647,2.399,6.47,1111122 
SCCF RECON,ioos:station:SCCF:16:1,2008-05-07T05:00:00Z,26.4345,-81.9647,2.557,6.65,1111122 
SCCF RECON,ioos:station:SCCF:16:1,2008-05-07T06:00:00Z,26.4345,-81.9647,2.651,6.41,1111122 
SCCF RECON,ioos:station:SCCF:16:1,2008-05-07T07:00:00Z,26.4345,-81.9647,2.662,6.38,1111122 
SCCF RECON,ioos:station:SCCF:16:1,2008-05-07T08:00:00Z,26.4345,-81.9647,2.628,6.36,1111122 
SCCF RECON,ioos:station:SCCF:16:1,2008-05-07T09:00:00Z,26.4345,-81.9647,2.571,6.34,1111122 
SCCF RECON,ioos:station:SCCF:16:1,2008-05-07T10:00:00Z,26.4345,-81.9647,2.516,6.27,1111122 
SCCF RECON,ioos:station:SCCF:16:1,2008-05-07T11:00:00Z,26.4345,-81.9647,2.508,6.17,1111122 
SCCF RECON,ioos:station:SCCF:16:1,2008-05-07T12:00:00Z,26.4345,-81.9647,2.498,6.19,1111122 
SCCF RECON,ioos:station:SCCF:16:1,2008-05-07T13:00:00Z,26.4345,-81.9647,2.542,6.23,1111122 
SCCF RECON,ioos:station:SCCF:16:1,2008-05-07T14:00:00Z,26.4345,-81.9647,2.694,6.35,1111122 
SCCF RECON,ioos:station:SCCF:16:1,2008-05-07T15:00:00Z,26.4345,-81.9647,2.868,6.46,1111122 
SCCF RECON,ioos:station:SCCF:16:1,2008-05-07T16:00:00Z,26.4345,-81.9647,2.971,6.52,1111122 
SCCF RECON,ioos:station:SCCF:16:1,2008-05-07T17:00:00Z,26.4345,-81.9647,3.027,6.48,1111122 
SCCF RECON,ioos:station:SCCF:16:1,2008-05-07T18:00:00Z,26.4345,-81.9647,3.078,6.5,1111122 
SCCF RECON,ioos:station:SCCF:16:1,2008-05-07T19:00:00Z,26.4345,-81.9647,3.022,6.51,1111122 
SCCF RECON,ioos:station:SCCF:16:1,2008-05-07T20:00:00Z,26.4345,-81.9647,2.866,6.54,1111122 
SCCF RECON,ioos:station:SCCF:16:1,2008-05-07T21:00:00Z,26.4345,-81.9647,2.622,6.63,1111122 
SCCF RECON,ioos:station:SCCF:16:1,2008-05-07T22:00:00Z,26.4345,-81.9647,2.339,6.66,1111122 
SCCF RECON,ioos:station:SCCF:16:1,2008-05-07T23:00:00Z,26.4345,-81.9647,2.073,6.68,1111122 
SCCF RECON,ioos:station:SCCF:16:1,2008-05-08T00:00:00Z,26.4345,-81.9647,1.849,6.62,1111122 
SCCF RECON,ioos:station:SCCF:16:1,2008-05-08T01:00:00Z,26.4345,-81.9647,1.746,6.77,1111122 
SCCF RECON,ioos:station:SCCF:16:1,2008-05-08T02:00:00Z,26.4345,-81.9647,1.817,6.73,1111122 
SCCF RECON,ioos:station:SCCF:16:1,2008-05-08T03:00:00Z,26.4345,-81.9647,2.064,6.66,1111122 
SCCF RECON,ioos:station:SCCF:16:1,2008-05-08T04:00:00Z,26.4345,-81.9647,2.344,6.55,1111122 
SCCF RECON,ioos:station:SCCF:16:1,2008-05-08T05:00:00Z,26.4345,-81.9647,2.503,6.42,1111122 
SCCF RECON,ioos:station:SCCF:16:1,2008-05-08T06:00:00Z,26.4345,-81.9647,2.615,6.53,1111122 
SCCF RECON,ioos:station:SCCF:16:1,2008-05-08T07:00:00Z,26.4345,-81.9647,2.676,6.54,1111122 
SCCF RECON,ioos:station:SCCF:16:1,2008-05-08T08:00:00Z,26.4345,-81.9647,2.715,6.47,1111122 
SCCF RECON,ioos:station:SCCF:16:1,2008-05-08T09:00:00Z,26.4345,-81.9647,2.729,6.37,1111122 
SCCF RECON,ioos:station:SCCF:16:1,2008-05-08T10:00:00Z,26.4345,-81.9647,2.684,6.25,1111122 
SCCF RECON,ioos:station:SCCF:16:1,2008-05-08T11:00:00Z,26.4345,-81.9647,2.636,6.23,1111122 
SCCF RECON,ioos:station:SCCF:16:1,2008-05-08T12:00:00Z,26.4345,-81.9647,2.579,6.16,1111122 
SCCF RECON,ioos:station:SCCF:16:1,2008-05-08T13:00:00Z,26.4345,-81.9647,2.611,6.15,1111122 
SCCF RECON,ioos:station:SCCF:16:1,2008-05-08T14:00:00Z,26.4345,-81.9647,2.715,6.28,1111122 
SCCF RECON,ioos:station:SCCF:16:1,2008-05-08T15:00:00Z,26.4345,-81.9647,2.837,6.35,1111122 
SCCF RECON,ioos:station:SCCF:16:1,2008-05-08T16:00:00Z,26.4345,-81.9647,2.98,6.33,1111122 
SCCF RECON,ioos:station:SCCF:16:1,2008-05-08T17:00:00Z,26.4345,-81.9647,3.057,6.39,1111122 
SCCF RECON,ioos:station:SCCF:16:1,2008-05-08T18:00:00Z,26.4345,-81.9647,3.084,6.49,1111122 
SCCF RECON,ioos:station:SCCF:16:1,2008-05-08T19:00:00Z,26.4345,-81.9647,3.086,6.56,1111122 
SCCF RECON,ioos:station:SCCF:16:1,2008-05-08T20:00:00Z,26.4345,-81.9647,2.993,6.56,1111122 
SCCF RECON,ioos:station:SCCF:16:1,2008-05-08T21:00:00Z,26.4345,-81.9647,2.807,6.51,1111122 
SCCF RECON,ioos:station:SCCF:16:1,2008-05-08T22:00:00Z,26.4345,-81.9647,2.592,6.44,1111122 
SCCF RECON,ioos:station:SCCF:16:1,2008-05-08T23:00:00Z,26.4345,-81.9647,2.356,6.43,1111122 
SCCF RECON,ioos:station:SCCF:16:1,2008-05-09T00:00:00Z,26.4345,-81.9647,2.113,6.5,1111122 
SCCF RECON,ioos:station:SCCF:16:1,2008-05-09T01:00:00Z,26.4345,-81.9647,1.883,6.45,1111122 
SCCF RECON,ioos:station:SCCF:16:1,2008-05-09T02:00:00Z,26.4345,-81.9647,1.794,6.86,1111122 
SCCF RECON,ioos:station:SCCF:16:1,2008-05-09T03:00:00Z,26.4345,-81.9647,1.895,6.53,1111122 
SCCF RECON,ioos:station:SCCF:16:1,2008-05-09T04:00:00Z,26.4345,-81.9647,2.134,6.16,1111122 
SCCF RECON,ioos:station:SCCF:16:1,2008-05-09T05:00:00Z,26.4345,-81.9647,2.336,6.3,1111122 
SCCF RECON,ioos:station:SCCF:16:1,2008-05-09T06:00:00Z,26.4345,-81.9647,2.484,6.33,1111122 
SCCF RECON,ioos:station:SCCF:16:1,2008-05-09T07:00:00Z,26.4345,-81.9647,2.554,6.2,1111122 
SCCF RECON,ioos:station:SCCF:16:1,2008-05-09T08:00:00Z,26.4345,-81.9647,2.61,6.24,1111122 
SCCF RECON,ioos:station:SCCF:16:1,2008-05-09T09:00:00Z,26.4345,-81.9647,2.653,6.11,1111122 
SCCF RECON,ioos:station:SCCF:16:1,2008-05-09T10:00:00Z,26.4345,-81.9647,2.66,6.04,1111122 
SCCF RECON,ioos:station:SCCF:16:1,2008-05-09T11:00:00Z,26.4345,-81.9647,2.638,5.9,1111122 
SCCF RECON,ioos:station:SCCF:16:1,2008-05-09T12:00:00Z,26.4345,-81.9647,2.615,5.88,1111122 
SCCF RECON,ioos:station:SCCF:16:1,2008-05-09T13:00:00Z,26.4345,-81.9647,2.578,5.98,1111122 
SCCF RECON,ioos:station:SCCF:16:1,2008-05-09T14:00:00Z,26.4345,-81.9647,2.585,6.1,1111122 
SCCF RECON,ioos:station:SCCF:16:1,2008-05-09T15:00:00Z,26.4345,-81.9647,2.662,6.27,1111122 
SCCF RECON,ioos:station:SCCF:16:1,2008-05-09T16:00:00Z,26.4345,-81.9647,2.782,6.25,1111122 
SCCF RECON,ioos:station:SCCF:16:1,2008-05-09T17:00:00Z,26.4345,-81.9647,2.872,6.23,1111122 
SCCF RECON,ioos:station:SCCF:16:1,2008-05-09T18:00:00Z,26.4345,-81.9647,2.906,6.11,1111122 
SCCF RECON,ioos:station:SCCF:16:1,2008-05-09T19:00:00Z,26.4345,-81.9647,2.909,6.35,1111122 
SCCF RECON,ioos:station:SCCF:16:1,2008-05-09T20:00:00Z,26.4345,-81.9647,2.878,6.42,1111122 
SCCF RECON,ioos:station:SCCF:16:1,2008-05-09T21:00:00Z,26.4345,-81.9647,2.821,6.41,1111122 
SCCF RECON,ioos:station:SCCF:16:1,2008-05-09T22:00:00Z,26.4345,-81.9647,2.688,6.5,1111122 
SCCF RECON,ioos:station:SCCF:16:1,2008-05-09T23:00:00Z,26.4345,-81.9647,2.517,6.36,1111122 
SCCF RECON,ioos:station:SCCF:16:1,2008-05-10T00:00:00Z,26.4345,-81.9647,2.314,5.99,1111122 
SCCF RECON,ioos:station:SCCF:16:1,2008-05-10T01:00:00Z,26.4345,-81.9647,2.093,5.98,1111122 
SCCF RECON,ioos:station:SCCF:16:1,2008-05-10T02:00:00Z,26.4345,-81.9647,1.918,6.27,1111122 
SCCF RECON,ioos:station:SCCF:16:1,2008-05-10T03:00:00Z,26.4345,-81.9647,1.849,6.6,1111122 
SCCF RECON,ioos:station:SCCF:16:1,2008-05-10T04:00:00Z,26.4345,-81.9647,1.909,6.42,1111122 
SCCF RECON,ioos:station:SCCF:16:1,2008-05-10T05:00:00Z,26.4345,-81.9647,2.122,6.19,1111122 
SCCF RECON,ioos:station:SCCF:16:1,2008-05-10T06:00:00Z,26.4345,-81.9647,2.289,6.12,1111122 
SCCF RECON,ioos:station:SCCF:16:1,2008-05-10T07:00:00Z,26.4345,-81.9647,2.391,5.91,1111122 
SCCF RECON,ioos:station:SCCF:16:1,2008-05-10T08:00:00Z,26.4345,-81.9647,2.476,5.83,1111122 
SCCF RECON,ioos:station:SCCF:16:1,2008-05-10T09:00:00Z,26.4345,-81.9647,2.581,5.85,1111122 
SCCF RECON,ioos:station:SCCF:16:1,2008-05-10T10:00:00Z,26.4345,-81.9647,2.624,5.82,1111122 
SCCF RECON,ioos:station:SCCF:16:1,2008-05-10T11:00:00Z,26.4345,-81.9647,2.623,5.86,1111122 
SCCF RECON,ioos:station:SCCF:16:1,2008-05-10T12:00:00Z,26.4345,-81.9647,2.6,5.98,1111122 
SCCF RECON,ioos:station:SCCF:16:1,2008-05-10T13:00:00Z,26.4345,-81.9647,2.583,6.05,1111122 
SCCF RECON,ioos:station:SCCF:16:1,2008-05-10T14:00:00Z,26.4345,-81.9647,2.548,6.03,1111122 
SCCF RECON,ioos:station:SCCF:16:1,2008-05-10T15:00:00Z,26.4345,-81.9647,2.538,6.09,1111122 
SCCF RECON,ioos:station:SCCF:16:1,2008-05-10T16:00:00Z,26.4345,-81.9647,2.565,6.16,1111122 
SCCF RECON,ioos:station:SCCF:16:1,2008-05-10T17:00:00Z,26.4345,-81.9647,2.647,6.27,1111122 
SCCF RECON,ioos:station:SCCF:16:1,2008-05-10T18:00:00Z,26.4345,-81.9647,2.735,6.36,1111122 
SCCF RECON,ioos:station:SCCF:16:1,2008-05-10T19:00:00Z,26.4345,-81.9647,2.814,6.53,1111122 
SCCF RECON,ioos:station:SCCF:16:1,2008-05-10T20:00:00Z,26.4345,-81.9647,2.818,6.62,1111122 
SCCF RECON,ioos:station:SCCF:16:1,2008-05-10T21:00:00Z,26.4345,-81.9647,2.791,6.65,1111122 
SCCF RECON,ioos:station:SCCF:16:1,2008-05-10T22:00:00Z,26.4345,-81.9647,2.746,6.72,1111122 
SCCF RECON,ioos:station:SCCF:16:1,2008-05-10T23:00:00Z,26.4345,-81.9647,2.649,6.68,1111122 
SCCF RECON,ioos:station:SCCF:16:1,2008-05-11T00:00:00Z,26.4345,-81.9647,2.507,6.58,1111122 
SCCF RECON,ioos:station:SCCF:16:1,2008-05-11T01:00:00Z,26.4345,-81.9647,2.348,6.3,1111122 
SCCF RECON,ioos:station:SCCF:16:1,2008-05-11T02:00:00Z,26.4345,-81.9647,2.185,6.37,1111122 
SCCF RECON,ioos:station:SCCF:16:1,2008-05-11T03:00:00Z,26.4345,-81.9647,2.03,6.76,1111122 
SCCF RECON,ioos:station:SCCF:16:1,2008-05-11T04:00:00Z,26.4345,-81.9647,1.93,6.01,1111122 
SCCF RECON,ioos:station:SCCF:16:1,2008-05-11T05:00:00Z,26.4345,-81.9647,1.989,6.35,1111122 
SCCF RECON,ioos:station:SCCF:16:1,2008-05-11T06:00:00Z,26.4345,-81.9647,2.163,6.4,1111122 
SCCF RECON,ioos:station:SCCF:16:1,2008-05-11T07:00:00Z,26.4345,-81.9647,2.342,6.39,1111122 
SCCF RECON,ioos:station:SCCF:16:1,2008-05-11T08:00:00Z,26.4345,-81.9647,2.438,6.24,1111122 
SCCF RECON,ioos:station:SCCF:16:1,2008-05-11T09:00:00Z,26.4345,-81.9647,2.522,6.01,1111122 
SCCF RECON,ioos:station:SCCF:16:1,2008-05-11T10:00:00Z,26.4345,-81.9647,2.587,6.21,1111122 
SCCF RECON,ioos:station:SCCF:16:1,2008-05-11T11:00:00Z,26.4345,-81.9647,2.651,6.23,1111122 
SCCF RECON,ioos:station:SCCF:16:1,2008-05-11T12:00:00Z,26.4345,-81.9647,2.675,6.2,1111122 
SCCF RECON,ioos:station:SCCF:16:1,2008-05-11T13:00:00Z,26.4345,-81.9647,2.634,6.22,1111122 
SCCF RECON,ioos:station:SCCF:16:1,2008-05-11T14:00:00Z,26.4345,-81.9647,2.638,6.22,1111122 
SCCF RECON,ioos:station:SCCF:16:1,2008-05-11T15:00:00Z,26.4345,-81.9647,2.594,6.22,1111122 
SCCF RECON,ioos:station:SCCF:16:1,2008-05-11T16:00:00Z,26.4345,-81.9647,2.527,6.33,1111122 
SCCF RECON,ioos:station:SCCF:16:1,2008-05-11T17:00:00Z,26.4345,-81.9647,2.538,6.38,1111122 
SCCF RECON,ioos:station:SCCF:16:1,2008-05-11T18:00:00Z,26.4345,-81.9647,2.565,6.49,1111122 
SCCF RECON,ioos:station:SCCF:16:1,2008-05-11T19:00:00Z,26.4345,-81.9647,2.662,6.58,1111122 
SCCF RECON,ioos:station:SCCF:16:1,2008-05-11T20:00:00Z,26.4345,-81.9647,2.73,6.74,1111122 
SCCF RECON,ioos:station:SCCF:16:1,2008-05-11T21:00:00Z,26.4345,-81.9647,2.726,6.78,1111122 
SCCF RECON,ioos:station:SCCF:16:1,2008-05-11T22:00:00Z,26.4345,-81.9647,2.719,6.74,1111122 
SCCF RECON,ioos:station:SCCF:16:1,2008-05-11T23:00:00Z,26.4345,-81.9647,2.694,6.7,1111122 
SCCF RECON,ioos:station:SCCF:16:1,2008-05-12T00:00:00Z,26.4345,-81.9647,2.628,6.7,1111122 
SCCF RECON,ioos:station:SCCF:16:1,2008-05-12T01:00:00Z,26.4345,-81.9647,2.547,6.64,1111122 
SCCF RECON,ioos:station:SCCF:16:1,2008-05-12T02:00:00Z,26.4345,-81.9647,2.413,6.66,1111122 
SCCF RECON,ioos:station:SCCF:16:1,2008-05-12T03:00:00Z,26.4345,-81.9647,2.297,6.36,1111122 
SCCF RECON,ioos:station:SCCF:16:1,2008-05-12T04:00:00Z,26.4345,-81.9647,2.16,6.36,1111122 
SCCF RECON,ioos:station:SCCF:16:1,2008-05-12T05:00:00Z,26.4345,-81.9647,2.066,6.21,1111122 
SCCF RECON,ioos:station:SCCF:16:1,2008-05-12T06:00:00Z,26.4345,-81.9647,2.113,6.08,1111122 
SCCF RECON,ioos:station:SCCF:16:1,2008-05-12T07:00:00Z,26.4345,-81.9647,2.254,6.27,1111122 
SCCF RECON,ioos:station:SCCF:16:1,2008-05-12T08:00:00Z,26.4345,-81.9647,2.401,6.16,1111122 
SCCF RECON,ioos:station:SCCF:16:1,2008-05-12T09:00:00Z,26.4345,-81.9647,2.487,6.01,1111122 
SCCF RECON,ioos:station:SCCF:16:1,2008-05-12T10:00:00Z,26.4345,-81.9647,2.584,6.05,1111122 
SCCF RECON,ioos:station:SCCF:16:1,2008-05-12T11:00:00Z,26.4345,-81.9647,2.658,6.05,1111122 